星链-4448 (STARLINK-4448 )

导读 | 星芒AI

STARLINK-4448 是 SpaceX Starlink 卫星互联网项目中的一颗低轨卫星,属于“星链”计划的数千颗卫星之一。该卫星旨在为全球用户提供高速互联网服务,尤其关注网络覆盖不足的地区。它运行在约 550 公里的轨道高度,具备先进的通信技术和激光链路,以实现高效的数据传输。作为 Starlink 群体的一部分,STARLINK-4448 有助于构建一个低延迟、高带宽的全球卫星网络,支持民用和商业应用。

基本信息
目录编号:
53504
目录名称:
STARLINK-4448
国际标识:
2022-099AR
轨道中心:
EARTH
卫星名称:
星链-4448
卫星全名:
星链-4448 (STARLINK-4448 )
卫星状态:
在轨 (已飞行1227 天)
发射日期:
2022-08-12 UTC
国别 :
美国 (US)
星等 :
--
轨道信息
数据来源 国际轨道数据
星历时间: 2025-12-21T05:22:51+0800
9小时前
查看轨道信息
半长轴: 6941.148km
偏心率: 0.0002759
轨道倾角: 97.604°
近地点辐角 238.799°
升交点赤经 113.069°
平近点角 121.297°
近地点: 561.095km
远地点: 564.927km
周期: 95.919分钟
每日圈数: 15.012597
详细信息
固有亮度:
5
最大亮度:
2.5
卫星平台:
Starlink v1.5
覆盖范围:
全球
运营商:
太空探索技术公司
运营商所在国:
美国
制造商(研发单位):
太空探索技术公司
制造商所在国:
美国
使用方式:
暂无
卫星简介
星链(Starlink)计划是由太空探索技术公司(SpaceX)提出的一个巨型低轨卫星互联网星座项目,计划在2019年至2024年间在太空搭建由约1.2万颗卫星组成的“星链”网络,其中1584颗将部署在地球上空550千米处的近地轨道,并从2020年开始工作。该卫星仍在工作。
2D轨道图
3D轨道图
轨道高度分析图
轨道倾角分析图
轨道综合分析图
查看轨道综合分析图